This is the latest recevied weather packets stored in our database for station/object K1WJY. If no packets are shown the sender has not sent any weather packets the latest 10 day(s).
| Time | Temp. | Humidity | Pressure | Rain* | Wind** | Luminosity | Snow |
|---|---|---|---|---|---|---|---|
| 1787414479 | 24.44° C | 55% | 1022 hPa | 0 mm | - | 181 W/m² | - |
| 1787414178 | 24.44° C | 55% | 1022.1 hPa | 0 mm | - | 182 W/m² | - |
| 1787413877 | 24.44° C | 54% | 1022.1 hPa | 0 mm | - | 171 W/m² | - |
| 1787413573 | 25° C | 53% | 1021.9 hPa | 0 mm | - | 279 W/m² | - |
| 1787413272 | 25° C | 52% | 1021.9 hPa | 0 mm | - | 303 W/m² | - |
| 1787412968 | 25.56° C | 53% | 1022.1 hPa | 0 mm | - | 336 W/m² | - |
| 1787412663 | 25.56° C | 52% | 1022 hPa | 0 mm | - | 269 W/m² | - |
| 1787412363 | 25.56° C | 50% | 1022.4 hPa | 0 mm | - | 359 W/m² | - |
| 1787412059 | 25.56° C | 50% | 1022.1 hPa | 0 mm | - | 687 W/m² | - |
| 1787411757 | 26.11° C | 49% | 1022.2 hPa | 0 mm | - | 554 W/m² | - |
| 1787411452 | 25.56° C | 50% | 1022 hPa | 0 mm | - | 655 W/m² | - |
| 1787411147 | 25.56° C | 49% | 1022.1 hPa | 0 mm | - | 442 W/m² | - |
| 1787410843 | 25.56° C | 48% | 1022.1 hPa | 0 mm | - | 413 W/m² | - |
| 1787410539 | 25.56° C | 50% | 1022.3 hPa | 0 mm | - | 603 W/m² | - |
| 1787410239 | 25° C | 48% | 1022.2 hPa | 0 mm | - | 512 W/m² | - |
| 1787409935 | 24.44° C | 51% | 1022.2 hPa | 0 mm | - | 350 W/m² | - |
| 1787409631 | 23.89° C | 49% | 1022.5 hPa | 0 mm | - | 311 W/m² | - |
| 1787409326 | 23.89° C | 50% | 1022.5 hPa | 0 mm | - | 266 W/m² | - |
| 1787409023 | 24.44° C | 50% | 1022.4 hPa | 0 mm | - | 350 W/m² | - |
| 1787408718 | 24.44° C | 49% | 1022.6 hPa | 0 mm | - | 302 W/m² | - |
| 1787408413 | 24.44° C | 47% | 1022.5 hPa | 0 mm | - | 442 W/m² | - |
| 1787408109 | 24.44° C | 47% | 1022.6 hPa | 0 mm | - | 384 W/m² | - |
| 1787407804 | 24.44° C | 46% | 1022.5 hPa | 0 mm | - | 465 W/m² | - |
| 1787407499 | 25° C | 46% | 1022.6 hPa | 0 mm | - | 422 W/m² | - |
| 1787407199 | 25° C | 48% | 1022.5 hPa | 0 mm | - | 493 W/m² | - |
* Rain latest hour (hover to see other rain measurements)
** Current wind speed in m/s (hover to see current wind gust speed)